Tracking 19817 objects as of 19-Aug-2019
HD Live streaming from Space Station
objects crossing your sky now

LEMUR-2 VICTOR-ANDREW

Track LEMUR-2 VICTOR-ANDREW now!
10-day predictions
LEMUR-2 VICTOR-ANDREW is classified as:


NORAD ID: 44087
Int'l Code: 2019-018K
Perigee: 497.0 km
Apogee: 517.1 km
Inclination: 97.5 °
Period: 94.6 minutes
Semi major axis: 6878 km
RCS: Unknown
Launch date: April 1, 2019
Source: United States (US)
Launch site: SRIHARIKOTA (SRI)
aabbcc
Your satellite tracking list
Your tracking list is empty




NASA's NSSDC Master Catalog

Two Line Element Set (TLE):
1 44087U 19018K   19230.74170911 +.00001396 +00000-0 +64141-4 0  9996
2 44087 097.4528 290.0798 0014574 149.9334 210.2742 15.21973969021204
Source of the keplerian elements: AFSPC